Home   Weather   Glennallen   Past weeks
Flag for USA

Past Weather in Glennallen, Alaska, USA — Yesterday and Last 2 Weeks

Now
65 °F

Broken clouds.


Feels Like: 65 °F
Forecast: 74 / 51 °F
Wind: No wind

Location: Gulkana Airport

Current Time: Jun 19, 2019 at 11:56:51 pm

Latest Report: Jun 19, 2019 at 10:53 pm


Visibility: 10 mi

Pressure: 30.15 "Hg

Humidity: 61%

Dew Point: 51 °F

Location of GlennallenLocation

Past Weather in Glennallen — Graph

°F

Glennallen Temperature Yesterday

Maximum temperature yesterday: 61 °F (at 2:53 pm)
Minimum temperature yesterday: 47 °F (at 5:53 am)
Average temperature yesterday: 54 °F

High & Low Weather Summary for the Past Weeks

 TemperatureHumidityPressure
High73 °F (Jun 13, 4:53 pm)100% (Jun 5, 1:53 am)30.21 "Hg (Jun 5, 1:53 am)
Low32 °F (Jun 5, 3:53 am)25% (Jun 5, 4:53 pm)29.65 "Hg (Jun 17, 2:53 pm)
Average55 °F67%29.95 "Hg
* Reported Jun 4 9:53 pm — Jun 19 9:53 pm, Glennallen. Weather by CustomWeather, © 2019

Note: Actual official high and low records may vary slightly from our data, if they occured in-between our weather recording intervals... More about our weather records

Advertising

Glennallen Weather History for the Previous 24 Hours

Scroll right to see more
 ConditionsComfort  
Time TempWeatherWind HumidityBarometerVisibility
9:53 pm
Wed, Jun 19
68 °FOvercast.3 mph53%30.14 "Hg10 mi
8:53 pm71 °FPartly sunny.5 mph45%30.12 "Hg10 mi
7:53 pm69 °FPartly sunny.8 mph47%30.11 "Hg10 mi
6:53 pm70 °FSunny.8 mph49%30.12 "Hg10 mi
5:53 pm70 °FSunny.9 mph55%30.12 "Hg10 mi
4:53 pm67 °FPartly sunny.8 mph61%30.13 "Hg10 mi
3:53 pm66 °FRain. Mostly cloudy.7 mph68%30.13 "Hg5 mi
2:53 pm68 °FBroken clouds.5 mph55%30.12 "Hg10 mi
1:53 pm71 °FPartly sunny.8 mph49%30.11 "Hg10 mi
12:53 pm69 °FPassing clouds.7 mph53%30.11 "Hg10 mi
11:53 am67 °FScattered clouds.6 mph57%30.10 "Hg10 mi
10:53 am66 °FScattered clouds.N/A56%30.11 "Hg10 mi
9:53 am64 °FScattered clouds.3 mph61%30.11 "Hg10 mi
8:53 am62 °FSunny.3 mph62%30.11 "Hg10 mi
7:53 am59 °FSunny.6 mph67%30.10 "Hg10 mi
6:53 am56 °FSunny.7 mph72%30.09 "Hg10 mi
5:53 am54 °FPartly sunny.5 mph77%30.08 "Hg10 mi
4:53 am50 °FPartly sunny.No wind86%30.08 "Hg10 mi
3:53 am50 °FBroken clouds.No wind86%30.06 "Hg10 mi
2:53 am50 °FOvercast.No wind86%30.05 "Hg10 mi
1:53 am52 °FMostly cloudy.No wind83%30.03 "Hg10 mi
12:53 am53 °FMostly cloudy.No wind77%30.02 "Hg10 mi
11:53 pm
Tue, Jun 18
54 °FMostly cloudy.No wind74%30.02 "Hg10 mi
Weather by CustomWeather, © 2019

See weather overview